Regional Weather Roundup
Issued by NWS New Orleans/Baton Rouge, LA

Home | Current Version | Previous Version | Text Only | Print | Product List | Glossary On
Versions: 1 2 3 4 5 6 7 8 9 10 11 12 13 14 15 16 17 18 19 20 21 22 23 24 25 26 27 28 29 30 31 32 33 34 35 36 37 38 39 40 41 42 43 44 45 46 47 48 49 50
000
ASUS44 KLIX 300310
RWRLIX
NEW ORLEANS REGIONAL WEATHER ROUNDUP
NATIONAL WEATHER SERVICE NEW ORLEANS LA
1000 PM CDT FRI AUG 29 2014

NOTE: "FAIR" INDICATES FEW OR NO CLOUDS BELOW 12,000 FEET WITH NO
      SIGNIFICANT WEATHER AND/OR OBSTRUCTIONS TO VISIBILITY.
      SKY/WX - SKY CONDITION AND SIGNIFICANT WEATHER.
      TMP - AIR TEMPERATURE.     DP    - DEWPOINT TEMPERATURE.
      RH  - RELATIVE HUMIDITY.   PRES  - PRESSURE.
      HI  - HEAT INDEX.          WCI   - WIND CHILL INDEX.

*  THESE STATIONS ARE NOT NWS OR FAA STATIONS AND ARE NOT UNDER
   NWS QUALITY CONTROL.

LAZ038-040-048-061>063-065>067-069-300400-
SOUTHEAST LOUISIANA

CITY           SKY/WX    TMP DP  RH WIND       PRES   REMARKS
N.O. AUDUBON     N/A     79  74  86 MISG        N/A
N.O. INTL ARPT CLOUDY    77  72  84 SE12      30.00R
N.O. LAKEFRONT CLOUDY    78  71  79 SE9       30.00R
N.O. DOWNTOWN*   N/A     79  68  69 S6        30.00S
SLIDELL        LGT RAIN  77  75  93 S3        30.01R
BATON ROUGE    CLOUDY    77  73  87 SE5       29.98R
BOOTHVILLE     CLOUDY    79  77  94 SE6       30.02R
BELLE CHASSE   CLOUDY    78  72  81 SE7       29.99R
BOGALUSA*        N/A     77  73  85 SE5       30.01R
GALLIANO*      NOT AVBL
NEW ROADS*     LGT RAIN  76  73  88 CALM      29.97S
GONZALES*        N/A     77  77 100 E3        29.98R
HAMMOND*       CLOUDY    77  73  88 E6        30.02R
HOUMA*         CLOUDY    76  73  92 SE5       29.99R
PORT FOURCHON* CLEAR     81  73  78 SE9       30.02R

$$

MSZ070-080>082-300400-
SOUTHERN MISSISSIPPI

CITY           SKY/WX    TMP DP  RH WIND       PRES   REMARKS
MCCOMB         CLOUDY    75  71  87 CALM      30.00R
GULFPORT       CLOUDY    80  76  87 SE7       30.00R
BILOXI         CLOUDY    81  76  87 SE8       30.00R
PASCAGOULA     CLOUDY    77  75  93 SE8       30.01R

$$

COASTAL OBSERVATIONS
LAKE AND NEARSHORE STATIONS

STATION/POSITION TIME  TEMP    WIND        PRES    WAVE
                       AIR SEA DIR/SP/G            HT/PER
                 (UTC) (F)     (DEG/KT/KT) (MB)    (FT/S)
PASCAGOULA       0300   80     130/ 10/ 14 1015.8
WAVELAND YACHT   0300   83     140/ 15/ 18 1015.0
GRAND ISLE       0300   81 84  120/  4/ 10 1016.6
SOUTHWEST PASS   0300   80 88  110/ 10/ 11 1016.7
NEW CANAL        0300   78 83  140/  3/  5 1016.2
SHELL BEACH      0300   79 81  140/  8/ 10 1016.1

OFFSHORE STATIONS

STATION/POSITION TIME  TEMP    WIND        PRES    WAVE
                       AIR SEA DIR/SP/G            HT/PER
                 (UTC) (F)     (DEG/KT/KT) (MB)    (FT/S)
64 S DAUPHIN ISL 0243   81 85  110/  8/ 10 1017.2

$$




USA.gov is the U.S. government's official web portal to all federal, state and local government web resources and services.